{"data":{"norad_id":58309,"epoch":"2026-06-27T19:43:48.926784Z","epoch_age_seconds":7330554,"freshness":"OLD","line1":"1 58309U 23174BF  26178.82209406  .00030263  00000+0  40460-3 0  9997","line2":"2 58309  97.3885 271.3101 0005778 120.1459 240.0370 15.57979635147466","mean_motion":15.57979635,"eccentricity":0.0005778,"inclination_deg":97.3885,"raan_deg":271.3101,"arg_perigee_deg":120.1459,"mean_anomaly_deg":240.037,"bstar":0.0004046,"rev_number":14746,"period_min":92.427395560918,"perigee_km":389.59235049902,"apogee_km":397.41766000029,"semimajor_km":6771.6420052497,"source":"CELESTRAK","updated_at":"2026-06-28T09:00:24.214925Z"}}